Location: Unspecified
(35.7250°N, 0.0000°E)
Time: 04:35:05
(UTC+00:00)

Vanguard 2 - Pass Details

Date: 21 June 2019
Orbit: 554 x 2938 km, 32.9° (Epoch: 21 August)

Event Time Altitude Azimuth Distance (km) Brightness Sun altitude
Rises 07:33:27 0° 227° (SW) 2,935 10.1 31.5°
Reaches altitude 10° 07:35:36 10° 218° (SW) 2,176 9.6 31.9°
Maximum altitude 07:40:10 36° 151° (SSE) 1,394 9.5 32.8°
Drops below altitude 10° 07:46:59 10° 88° (E) 3,282 12.2 34.2°
Sets 07:50:57 0° 81° (E) 4,679 12.6 35.0°
